KD9NSC Weather Reports


time (UTC)temp
C
wind
direction
speed
KPH
gust
KPH
rain 1hr
cm
rain 24hr
cm
rain mn
cm
humidity
%
barometer
mb
20260505171020 13 355 0.0 0.0 0.00 0.10 0.10 61 1011.1
20260505170517 12 352 0.0 0.0 0.00 0.10 0.10 60 1011.1
20260505170013 12 340 0.0 0.0 0.00 0.10 0.10 51 1011.1
20260505165508 12 351 0.0 0.0 0.00 0.10 0.10 64 1011.3
20260505165004 11 351 0.0 0.0 0.00 0.10 0.10 67 1011.1
20260505164500 11 352 0.0 0.0 0.00 0.10 0.10 63 1011.1
20260505163958 11 351 0.0 0.0 0.00 0.10 0.10 70 1010.9
20260505163457 11 351 0.0 0.0 0.00 0.10 0.10 66 1010.9
20260505162956 10 351 0.0 0.0 0.00 0.10 0.10 68 1010.9
20260505162451 11 343 0.0 0.0 0.00 0.10 0.10 71 1011.0
20260505161948 12 331 0.0 0.0 0.00 0.10 0.10 70 1011.3
20260505161445 12 356 0.0 0.0 0.00 0.10 0.10 70 1011.1
20260505160942 11 357 0.0 0.0 0.00 0.10 0.10 78 1011.1
20260505160440 11 356 0.0 0.0 0.00 0.10 0.10 79 1011.1
20260505152910 12 334 0.0 0.0 0.00 0.10 0.10 77 1011.2
20260505152407 11 358 0.0 0.0 0.00 0.10 0.10 80 1011.1
20260505151902 11 314 0.0 0.0 0.00 0.10 0.10 86 1011.1
20260505151359 10 314 0.0 0.0 0.00 0.10 0.10 85 1011.1
20260505150855 9 314 0.0 0.0 0.00 0.10 0.10 90 1011.1
20260505150352 8 320 0.0 0.0 0.00 0.10 0.10 91 1011.2
20260505140317 7 301 0.0 0.0 0.18 0.08 0.08 93 1011.9
20260505130240 7 299 0.0 0.0 0.00 0.00 0.00 87 1010.3
20260505124731 7 301 0.0 0.0 0.00 0.00 0.00 82 1010.7
20260505124228 8 311 0.0 0.0 0.00 0.00 0.00 83 1010.6
20260505123723 8 310 0.0 0.0 0.00 0.00 0.00 80 1010.7
20260505123220 8 320 0.0 0.0 0.00 0.00 0.00 81 1010.4
20260505122717 8 318 0.0 0.0 0.00 0.00 0.00 81 1010.4
20260505122214 8 312 0.0 0.0 0.00 0.00 0.00 83 1010.1
20260505121711 8 315 0.0 0.0 0.00 0.00 0.00 84 1010.2
20260505121207 8 316 0.0 0.0 0.00 0.00 0.00 84 1010.0
20260505120704 8 344 0.0 0.0 0.00 0.00 0.00 84 1009.9
20260505120200 8 344 0.0 0.0 0.00 0.00 0.00 85 1009.4
20260505115653 8 344 0.0 0.0 0.00 0.00 0.00 86 1009.3
20260505115151 8 344 0.0 0.0 0.00 0.00 0.00 86 1009.2
20260505114648 8 344 0.0 0.0 0.00 0.00 0.00 86 1009.5
20260505114144 8 344 0.0 0.0 0.00 0.00 0.00 87 1009.5
20260505113641 8 344 0.0 0.0 0.00 0.00 0.00 87 1009.2
20260505113137 8 344 0.0 0.0 0.00 0.00 0.00 88 1008.8
20260505112634 8 345 0.0 0.0 0.00 0.00 0.00 87 1008.6
20260505112132 7 345 0.0 0.0 0.00 0.00 0.00 88 1008.3
20260505111626 8 345 0.0 0.0 0.00 0.00 0.00 89 1008.2
20260505111122 7 345 0.0 0.0 0.00 0.00 0.00 89 1008.5
20260505110618 7 345 0.0 0.0 0.00 0.00 0.00 88 1008.7
20260505110115 7 345 0.0 0.0 0.00 0.00 0.00 89 1008.5
20260505102051 8 345 0.0 0.0 0.00 0.00 0.00 88 1008.2
20260505101549 8 345 0.0 0.0 0.00 0.00 0.00 90 1008.2
20260505101045 8 345 0.0 0.0 0.00 0.00 0.00 91 1008.6
20260505100542 8 345 0.0 0.0 0.00 0.00 0.00 90 1008.2
20260505100039 8 345 0.0 0.0 0.00 0.00 0.00 92 1007.9
20260505095535 8 345 0.0 0.0 0.00 0.00 0.00 92 1008.0
20260505095032 8 345 0.0 0.0 0.00 0.00 0.00 90 1008.1
20260505094528 8 345 0.0 0.0 0.00 0.00 0.00 92 1008.0
20260505094025 8 345 0.0 0.0 0.00 0.00 0.00 93 1008.0
20260505093521 8 345 0.0 0.0 0.00 0.00 0.00 93 1007.9
20260505093018 8 345 0.0 0.0 0.00 0.00 0.00 94 1007.9
20260505092516 8 345 0.0 0.0 0.00 0.00 0.00 94 1007.7
20260505092014 8 345 0.0 0.0 0.00 0.00 0.00 95 1007.2
20260505091511 8 345 0.0 0.0 0.00 0.00 0.00 95 1007.4
20260505091009 8 345 0.0 0.0 0.00 0.00 0.00 95 1007.3
20260505090507 8 345 0.0 0.0 0.00 0.00 0.00 96 1007.0
20260505090004 8 345 0.0 0.0 0.00 0.00 0.00 96 1006.9
20260505085502 9 345 0.0 0.0 0.00 0.00 0.00 97 1006.7
20260505085000 9 3 0.0 0.0 0.00 0.00 0.00 97 1006.7
20260505084458 9 3 0.0 0.0 0.00 0.00 0.00 97 1006.3
20260505083955 10 3 0.0 0.0 0.00 0.00 0.00 97 1006.2
20260505083452 10 3 0.0 0.0 0.00 0.00 0.00 98 1006.2
20260505082949 10 3 0.0 0.0 0.00 0.00 0.00 98 1006.1
20260505082444 10 2 0.0 0.0 0.00 0.00 0.00 98 1006.0
20260505081942 10 2 0.0 0.0 0.00 0.00 0.00 98 1006.2
20260505081438 10 2 0.0 0.0 0.00 0.00 0.00 98 1006.0
20260505080935 10 2 0.0 0.0 0.00 0.00 0.00 98 1005.6
20260505080431 10 2 0.0 0.0 0.00 0.00 0.00 98 1005.4
20260505075927 10 2 0.0 0.0 0.00 0.00 0.00 98 1005.4
20260505075424 10 2 0.0 0.0 0.00 0.00 0.00 98 1005.4
20260505074921 11 2 0.0 0.0 0.00 0.00 0.00 98 1005.1
20260505074418 11 2 0.0 0.0 0.00 0.00 0.00 98 1004.9
20260505073915 11 2 0.0 0.0 0.00 0.00 0.00 98 1004.5
20260505073413 11 2 0.0 0.0 0.00 0.00 0.00 98 1004.6
20260505072910 11 2 0.0 0.0 0.00 0.00 0.00 98 1004.8
20260505072406 11 2 0.0 0.0 0.00 0.00 0.00 98 1004.9
20260505071902 11 2 0.0 0.0 0.00 0.00 0.00 98 1004.7
20260505071358 11 2 0.0 0.0 0.00 0.00 0.00 98 1004.7
20260505070857 11 2 0.0 0.0 0.00 0.00 0.00 98 1004.6
20260505070353 11 2 0.0 0.0 0.00 0.00 0.00 98 1004.6
20260505065848 11 2 0.0 0.0 0.00 0.00 0.00 98 1004.4
20260505065346 12 2 0.0 0.0 0.00 0.00 0.00 98 1004.4
20260505064842 12 2 0.0 0.0 0.00 0.00 0.00 98 1004.3
20260505064339 12 2 0.0 0.0 0.00 0.00 0.00 98 1004.0
20260505063838 12 2 0.0 0.0 0.00 0.00 0.00 98 1004.1
20260505063333 12 2 0.0 0.0 0.00 0.00 0.00 98 1004.0
20260505062830 12 2 0.0 0.0 0.00 0.00 0.00 98 1004.0
20260505062328 12 2 0.0 0.0 0.00 0.00 0.00 98 1004.0
20260505061824 12 2 0.0 0.0 0.00 0.00 0.00 98 1004.1
20260505061322 12 2 0.0 0.0 0.00 0.00 0.00 98 1003.8
20260505060819 12 2 0.0 0.0 0.00 0.00 0.00 98 1003.9
20260505060316 12 2 0.0 0.0 0.00 0.00 0.00 98 1003.6
20260505055812 12 2 0.0 0.0 0.00 0.00 0.00 98 1003.5
20260505055308 12 2 0.0 0.0 0.00 0.00 0.00 98 1003.5
20260505054806 12 2 0.0 0.0 0.00 0.00 0.00 98 1003.5
20260505054303 12 2 0.0 0.0 0.00 0.00 0.00 98 1003.5
20260505053801 12 2 0.0 0.0 0.00 0.00 0.00 98 1003.7
20260505053258 12 2 0.0 0.0 0.00 0.00 0.00 98 1003.6
20260505052754 12 2 0.0 0.0 0.00 0.00 0.00 98 1003.6
20260505052252 12 2 0.0 0.0 0.00 0.00 0.00 98 1003.4
20260505051748 12 2 0.0 0.0 0.00 0.00 0.00 98 1003.7
20260505051246 12 2 0.0 0.0 0.00 0.00 0.00 98 1003.4
20260505050744 12 2 0.0 0.0 0.00 0.00 0.00 98 1003.4
20260505050243 13 2 0.0 0.0 0.00 0.00 0.00 98 1003.3
20260505041712 13 2 0.0 0.0 0.00 0.79 0.79 98 1003.0
20260505041209 13 2 0.0 0.0 0.00 0.79 0.79 98 1002.9
20260505040707 13 2 0.0 0.0 0.00 0.79 0.79 97 1003.0
20260505040204 13 2 0.0 0.0 0.00 0.79 0.79 97 1002.9
20260505035701 13 2 0.0 0.0 0.00 0.79 0.79 97 1002.8
20260505035156 13 2 0.0 0.0 0.00 0.79 0.79 97 1002.0
20260505034653 13 2 0.0 0.0 0.00 0.79 0.79 97 1001.9
20260505034150 13 2 0.0 0.0 0.00 0.79 0.79 97 1002.0
20260505033646 13 2 0.0 0.0 0.00 0.79 0.79 97 1001.7
20260505033145 13 2 0.0 0.0 0.00 0.79 0.79 97 1002.0
20260505032642 13 2 0.0 0.0 0.00 0.79 0.79 97 1001.7
20260505032133 13 2 0.0 0.0 0.00 0.79 0.79 97 1001.9
20260505031630 13 2 0.0 0.0 0.00 0.79 0.79 97 1001.9
20260505031126 13 2 0.0 0.0 0.00 0.79 0.79 97 1002.4
20260505030624 13 2 0.0 0.0 0.18 0.79 0.79 97 1002.3
20260505030120 13 2 0.0 0.0 0.18 0.79 0.79 97 1002.5
20260505025615 13 356 0.0 0.0 0.00 0.76 0.76 97 1002.7
20260505025114 13 356 0.0 0.0 0.13 0.76 0.76 97 1002.7
20260505024611 13 349 0.0 0.0 0.13 0.76 0.76 97 1003.0
20260505024109 13 353 0.0 0.0 0.18 0.74 0.74 97 1003.4
20260505023606 13 334 0.0 0.0 0.18 0.74 0.74 97 1003.1
20260505023103 13 309 0.0 0.0 0.00 0.71 0.71 97 1002.6
20260505022600 13 329 0.0 0.0 0.00 0.71 0.71 97 1002.3
20260505022057 13 349 0.0 0.0 0.00 0.71 0.71 97 1002.1
20260505021554 13 339 0.0 0.0 0.00 0.71 0.71 97 1001.9
20260505021051 13 325 0.0 0.0 0.00 0.71 0.71 97 1002.1
20260505020550 13 340 0.0 0.0 0.00 0.71 0.71 97 1002.6
20260505020048 14 335 0.0 0.0 0.00 0.71 0.71 97 1002.3
20260505015545 15 321 0.0 0.0 0.00 0.71 0.71 97 1002.0
20260505015041 15 337 0.0 0.0 0.00 0.71 0.71 97 1002.0
20260505014538 15 352 0.0 0.0 0.00 0.71 0.71 97 1001.8
20260505014036 15 353 0.0 0.0 0.00 0.71 0.71 97 1001.5
20260505013532 15 352 0.0 0.0 0.00 0.71 0.71 97 1001.5
20260505013030 15 330 0.0 0.0 0.13 0.71 0.71 97 1001.8
20260505012528 14 330 0.0 0.0 0.13 0.71 0.71 96 1002.6
20260505012025 14 324 0.0 0.0 0.18 0.69 0.69 96 1002.4
20260505011520 14 322 0.0 0.0 0.30 0.69 0.69 96 1002.6
20260505011018 13 332 0.0 0.0 0.30 0.69 0.69 96 1002.3
20260505010513 13 327 0.0 0.0 0.00 0.64 0.64 96 1002.0
20260505010010 13 327 0.0 0.0 0.00 0.64 0.64 96 1002.0
20260505005506 13 327 0.0 0.0 0.00 0.64 0.64 96 1002.1
20260505005004 14 319 0.0 0.0 0.00 0.64 0.64 96 1002.3
20260505004501 14 321 0.0 0.0 0.00 0.64 0.64 96 1002.0
20260505003958 15 327 0.0 0.0 0.00 0.64 0.64 96 1002.1
20260505003455 15 331 0.0 0.0 0.00 0.64 0.64 96 1001.3
20260505002950 15 356 0.0 0.0 0.00 0.64 0.64 96 1000.4
20260505002447 15 356 0.0 0.0 0.00 0.64 0.64 96 1000.5
20260505001945 15 355 0.0 0.0 0.00 0.64 0.64 95 1000.3
20260505001442 15 339 0.0 0.0 0.00 0.64 0.64 95 999.7
20260505000939 15 342 0.0 0.0 0.00 0.64 0.64 95 999.7
20260505000437 15 345 0.0 0.0 0.18 0.64 0.64 95 999.4
20260504235934 15 336 0.0 0.0 0.18 0.64 0.64 95 999.6
20260504235431 15 342 0.0 0.0 0.00 0.61 0.61 94 1000.3
20260504234927 15 342 0.0 0.0 0.43 0.61 0.61 93 1000.4
20260504234425 15 332 0.0 0.0 1.50 0.61 0.61 93 1000.4
20260504233921 15 333 0.0 0.0 2.39 0.56 0.56 92 1001.1
20260504233417 16 350 0.0 0.0 2.11 0.43 0.43 90 1001.7
20260504232914 17 338 0.0 1.6 0.97 0.15 0.15 86 1001.7
20260504232411 18 324 0.0 0.0 0.48 0.08 0.08 82 1001.5
20260504231908 20 329 0.0 0.0 0.00 0.00 0.00 73 1001.0
20260504231404 20 333 0.0 0.0 0.00 0.00 0.00 70 1001.2
20260504230901 21 357 0.0 0.0 0.00 0.00 0.00 65 1000.6
20260504230358 21 326 0.0 0.0 0.00 0.00 0.00 63 1000.5
20260504225857 21 330 0.0 0.0 0.00 0.00 0.00 60 1000.6
20260504225353 21 340 0.0 0.0 0.00 0.00 0.00 63 1000.4
20260504224851 22 321 1.6 1.6 0.00 0.00 0.00 61 1000.4
20260504224347 22 349 0.0 1.6 0.00 0.00 0.00 53 1000.4
20260504223844 22 329 0.0 1.6 0.00 0.00 0.00 52 1000.3
20260504223339 23 1 0.0 1.6 0.00 0.00 0.00 53 1000.1
20260504222836 23 341 0.0 0.0 0.00 0.00 0.00 52 1000.0
20260504222333 23 22 0.0 0.0 0.00 0.00 0.00 51 1000.2
20260504221832 23 9 0.0 1.6 0.00 0.00 0.00 51 1000.0
20260504221328 23 16 0.0 0.0 0.00 0.00 0.00 52 1000.1
20260504220825 23 29 0.0 1.6 0.00 0.00 0.00 54 1000.2
20260504220322 23 55 0.0 1.6 0.00 0.00 0.00 54 1000.4
20260504215819 23 352 0.0 0.0 0.00 0.00 0.00 54 1000.5
20260504215315 23 288 1.6 1.6 0.00 0.00 0.00 58 1000.3
20260504214811 23 37 0.0 0.0 0.00 0.00 0.00 52 1000.5
20260504214309 23 99 1.6 1.6 0.00 0.00 0.00 52 1000.5
20260504213805 23 54 0.0 1.6 0.00 0.00 0.00 52 1000.6
20260504213301 23 12 1.6 1.6 0.00 0.00 0.00 54 1000.7
20260504212759 24 312 0.0 0.0 0.00 0.00 0.00 56 1000.8
20260504212255 25 8 0.0 1.6 0.00 0.00 0.00 47 1000.7
20260504211752 25 24 0.0 1.6 0.00 0.00 0.00 44 1000.8
20260504211248 25 346 0.0 0.0 0.00 0.00 0.00 43 1000.7
20260504210746 25 350 1.6 1.6 0.00 0.00 0.00 44 1000.7
20260504210243 25 318 0.0 1.6 0.00 0.00 0.00 43 1000.9
20260504205740 25 59 0.0 1.6 0.00 0.00 0.00 44 1000.9
20260504205238 26 358 0.0 0.0 0.00 0.00 0.00 41 1000.9
20260504204736 26 333 0.0 0.0 0.00 0.00 0.00 43 1000.8
20260504204234 26 320 0.0 0.0 0.00 0.00 0.00 39 1001.0
20260504203733 26 322 0.0 0.0 0.00 0.00 0.00 39 1001.1
20260504203229 26 324 0.0 0.0 0.00 0.00 0.00 39 1000.9
20260504202729 25 323 0.0 0.0 0.00 0.00 0.00 41 1001.0
20260504202227 25 338 0.0 0.0 0.00 0.00 0.00 41 1001.0
20260504201724 25 328 0.0 0.0 0.00 0.00 0.00 44 1001.1
20260504201221 25 327 0.0 0.0 0.00 0.00 0.00 41 1001.3
20260504200719 26 309 0.0 0.0 0.00 0.00 0.00 43 1001.1
20260504200214 26 328 0.0 0.0 0.00 0.00 0.00 39 1001.2
20260504195711 26 324 1.6 1.6 0.00 0.00 0.00 39 1001.3
20260504195207 26 346 0.0 0.0 0.00 0.00 0.00 39 1001.3
20260504194704 26 356 0.0 1.6 0.00 0.00 0.00 39 1001.4
20260504194200 27 2 0.0 0.0 0.00 0.00 0.00 38 1001.4
20260504193657 27 345 0.0 0.0 0.00 0.00 0.00 41 1001.5
20260504193155 27 340 0.0 0.0 0.00 0.00 0.00 38 1001.4
20260504192652 27 353 0.0 0.0 0.00 0.00 0.00 38 1001.7
20260504192150 27 320 0.0 1.6 0.00 0.00 0.00 35 1001.6
20260504191649 27 325 0.0 0.0 0.00 0.00 0.00 37 1001.9
20260504191144 26 350 0.0 0.0 0.00 0.00 0.00 39 1001.7
20260504190641 26 325 0.0 0.0 0.00 0.00 0.00 42 1001.8
20260504190137 26 328 0.0 0.0 0.00 0.00 0.00 37 1001.9
20260504185634 26 317 0.0 0.0 0.00 0.00 0.00 40 1001.8
20260504185130 26 1 0.0 0.0 0.00 0.00 0.00 41 1001.8
20260504184626 26 355 0.0 0.0 0.00 0.00 0.00 40 1002.1
20260504184121 26 337 0.0 0.0 0.00 0.00 0.00 39 1002.3
20260504183619 26 349 1.6 3.2 0.00 0.00 0.00 40 1002.5
20260504183117 27 335 0.0 0.0 0.00 0.00 0.00 42 1002.3
20260504182614 27 330 0.0 0.0 0.00 0.00 0.00 40 1002.1
20260504182111 26 323 0.0 0.0 0.00 0.00 0.00 40 1002.3
20260504181609 26 339 1.6 1.6 0.00 0.00 0.00 40 1002.1
20260504181106 26 6 0.0 0.0 0.00 0.00 0.00 42 1002.5
20260504180605 25 313 0.0 0.0 0.00 0.00 0.00 42 1002.5
20260504180104 26 347 0.0 1.6 0.00 0.00 0.00 43 1002.7
20260504175600 26 315 0.0 0.0 0.00 0.00 0.00 42 1002.8
20260504175057 26 352 0.0 0.0 0.00 0.00 0.00 43 1002.8
20260504174555 26 6 0.0 0.0 0.00 0.00 0.00 43 1002.8
20260504174051 27 324 0.0 0.0 0.00 0.00 0.00 42 1002.8
20260504173548 27 4 0.0 0.0 0.00 0.00 0.00 44 1003.0
20260504173046 26 332 0.0 0.0 0.00 0.00 0.00 43 1003.1
20260504172542 26 73 1.6 1.6 0.00 0.00 0.00 45 1003.1
20260504172038 27 306 0.0 0.0 0.00 0.00 0.00 43 1003.2
20260504171535 27 337 0.0 0.0 0.00 0.00 0.00 42 1003.3